DW2963 Weather Reports


Display with metric or nautical units.
time (UTC)temp
F
wind
direction
speed
MPH
gust
MPH
rain 1hr
in
rain 24hr
in
rain mn
in
humidity
%
barometer
mb
20260509111525 48 213 13.0 21.0 0.00 0.00 0.00 95 1001.4
20260509110125 48 225 15.0 21.0 0.00 0.00 0.00 94 1001.3
20260509104505 48 232 14.0 22.0 0.00 0.00 0.00 95 1001.3
20260509103002 48 198 15.0 22.0 0.00 0.00 0.00 94 1001.3
20260509101600 49 215 18.0 22.0 0.00 0.00 0.00 94 1001.4
20260509100058 49 235 14.0 24.0 0.00 0.00 0.00 94 1001.5
20260509094601 49 205 16.0 25.0 0.00 0.00 0.00 94 1001.7
20260509093055 49 234 17.0 24.0 0.00 0.00 0.00 94 1001.7
20260509091559 50 199 18.0 26.0 0.00 0.00 0.00 93 1001.9
20260509090104 49 211 17.0 22.0 0.00 0.00 0.00 94 1001.9
20260509084544 50 212 19.0 23.0 0.00 0.00 0.00 93 1002.0
20260509083046 49 225 17.0 21.0 0.00 0.00 0.00 93 1002.3
20260509081633 49 216 16.0 22.0 0.00 0.00 0.00 93 1002.6
20260509080034 49 207 15.0 24.0 0.00 0.00 0.00 92 1002.9
20260509074535 49 198 14.0 23.0 0.00 0.00 0.00 92 1003.3
20260509073027 49 240 13.0 20.0 0.00 0.00 0.00 92 1003.3
20260509071525 49 201 13.0 22.0 0.00 0.00 0.00 91 1003.5
20260509070026 50 194 15.0 22.0 0.00 0.00 0.00 90 1003.8
20260509064506 51 210 17.0 22.0 0.00 0.00 0.00 89 1004.1
20260509063003 51 211 16.0 26.0 0.00 0.00 0.00 87 1004.1
20260509061602 52 200 16.0 23.0 0.00 0.00 0.00 85 1004.3
20260509060058 52 194 14.0 20.0 0.00 0.00 0.00 83 1004.4
20260509054556 52 184 13.0 18.0 0.00 0.00 0.00 82 1004.6
20260509053052 53 200 12.0 20.0 0.00 0.00 0.00 80 1004.8
20260509051552 53 183 12.0 17.0 0.00 0.00 0.00 79 1004.8
20260509050058 53 196 12.0 19.0 0.00 0.00 0.00 79 1004.7
20260509043040 55 190 12.0 21.0 0.00 0.00 0.00 70 1005.0
20260509041530 56 198 13.0 21.0 0.00 0.00 0.00 67 1005.1
20260509040027 55 197 11.0 21.0 0.00 0.00 0.00 65 1005.4
20260509034526 55 194 13.0 22.0 0.00 0.00 0.00 63 1005.5
20260509033034 55 202 12.0 19.0 0.00 0.00 0.00 60 1005.8
20260509031527 54 196 14.0 19.0 0.00 0.00 0.00 62 1005.9
20260509030022 54 179 13.0 20.0 0.00 0.00 0.00 62 1006.3
20260509024509 54 173 12.0 18.0 0.00 0.00 0.00 59 1006.4
20260509023008 54 177 12.0 19.0 0.00 0.00 0.00 61 1006.4
20260509021507 54 187 12.0 18.0 0.00 0.00 0.00 59 1006.5
20260509020006 54 175 11.0 17.0 0.00 0.00 0.00 54 1006.5
20260509014505 55 186 11.0 17.0 0.00 0.00 0.00 53 1006.5
20260509013004 55 184 10.0 14.0 0.00 0.00 0.00 63 1006.6
20260509011506 56 182 8.0 12.0 0.00 0.00 0.00 30 1006.3
20260509010002 56 186 8.0 14.0 0.00 0.00 0.00 36 1006.2
20260509004556 57 180 8.0 14.0 0.00 0.00 0.00 38 1006.2
20260509003046 57 196 6.0 15.0 0.00 0.00 0.00 33 1006.4
20260509001541 56 182 10.0 19.0 0.00 0.00 0.00 43 1006.6
20260509000044 55 200 12.0 19.0 0.00 0.00 0.00 55 1006.9
20260508234534 55 191 13.0 19.0 0.00 0.00 0.00 55 1007.0
20260508233033 55 196 13.0 18.0 0.00 0.00 0.00 50 1007.1
20260508231528 54 165 12.0 16.0 0.00 0.00 0.00 60 1007.3
20260508230026 54 185 12.0 16.0 0.00 0.00 0.00 62 1007.5
20260508224520 53 202 11.0 16.0 0.00 0.00 0.00 66 1007.6
20260508223004 53 197 10.0 16.0 0.00 0.00 0.00 69 1007.9
20260508221557 53 192 9.0 14.0 0.00 0.00 0.00 71 1008.0
20260508220047 53 207 10.0 14.0 0.00 0.00 0.00 72 1008.1
20260508214549 53 201 11.0 14.0 0.00 0.00 0.00 70 1008.2
20260508213043 53 186 10.0 14.0 0.00 0.00 0.00 72 1008.2
20260508211547 52 177 10.0 14.0 0.00 0.00 0.00 75 1008.4
20260508210040 51 198 10.0 14.0 0.00 0.00 0.00 79 1008.6
20260508204537 51 194 10.0 13.0 0.00 0.00 0.00 79 1008.9
20260508203036 51 208 12.0 14.0 0.00 0.00 0.00 80 1009.1
20260508201519 51 202 10.0 13.0 0.00 0.00 0.00 80 1009.3
20260508200029 51 205 11.0 14.0 0.00 0.00 0.00 82 1009.5
20260508194516 51 204 12.0 15.0 0.00 0.00 0.00 85 1009.6
20260508193014 50 204 11.0 15.0 0.00 0.00 0.00 86 1009.9
20260508191513 50 201 11.0 14.0 0.00 0.00 0.00 85 1010.0
20260508190018 50 207 11.0 14.0 0.00 0.00 0.00 84 1010.1
20260508184522 50 206 10.0 13.0 0.00 0.00 0.00 83 1010.3
20260508183010 51 211 9.0 11.0 0.00 0.00 0.00 83 1010.3
20260508181509 51 205 9.0 12.0 0.00 0.00 0.00 84 1010.5
20260508180055 51 196 8.0 12.0 0.00 0.00 0.00 83 1010.7
20260508174553 50 211 9.0 11.0 0.00 0.00 0.00 85 1010.9
20260508173053 51 205 8.0 11.0 0.00 0.00 0.00 84 1011.2
20260508171553 50 207 8.0 11.0 0.00 0.00 0.00 84 1011.3
20260508170049 50 207 10.0 12.0 0.00 0.00 0.00 84 1011.6
20260508164548 50 211 11.0 13.0 0.00 0.00 0.00 84 1011.9
20260508163049 50 204 9.0 14.0 0.00 0.00 0.00 84 1011.8
20260508161546 50 204 10.0 12.0 0.00 0.00 0.00 84 1012.1
20260508160045 50 215 10.0 13.0 0.00 0.00 0.00 84 1012.0
20260508154543 49 207 10.0 13.0 0.00 0.00 0.00 83 1012.0
20260508153029 49 209 11.0 14.0 0.00 0.00 0.00 84 1012.0
20260508151528 48 205 12.0 15.0 0.00 0.00 0.00 83 1012.1
20260508150033 48 215 12.0 17.0 0.00 0.00 0.00 85 1012.1
20260508144625 48 205 11.0 14.0 0.00 0.00 0.00 82 1012.1
20260508143034 49 204 9.0 13.0 0.00 0.00 0.00 81 1012.0
20260508141524 48 217 11.0 13.0 0.00 0.00 0.00 80 1012.3
20260508140015 49 207 7.0 10.0 0.00 0.00 0.00 80 1012.1
20260508134514 48 215 9.0 11.0 0.00 0.00 0.00 79 1012.1
20260508133002 48 213 9.0 11.0 0.00 0.00 0.00 80 1012.1
20260508131502 48 182 9.0 10.0 0.00 0.00 0.00 81 1012.2
20260508130058 47 193 9.0 11.0 0.00 0.00 0.00 82 1012.2
20260508124601 47 211 8.0 11.0 0.00 0.00 0.00 82 1012.3
20260508123055 45 201 7.0 10.0 0.00 0.00 0.00 88 1012.3
20260508121554 44 182 4.0 7.0 0.00 0.00 0.00 92 1012.3
20260508120053 43 189 4.0 6.0 0.00 0.00 0.00 92 1012.0
20260508114558 42 183 2.0 6.0 0.00 0.00 0.00 93 1011.9
20260508113105 41 121 1.0 4.0 0.00 0.00 0.00 94 1011.7